STARLINK-35974 (66862 NORAD) Tracking and Keplerian Element Data

This shows tracking and keplerian element data for the satellite.

Feedback or suggestion? Click here.




ElementValue
Catalog66862
NameSTARLINK-35974
Epoch Orbit250
Epoch Day354.25003472
Epoch Year2025
RAAN76.3333
Inclination43.0009
Eccentricity9.98E-05
Argument of Perigee264.7299
Mean Anonmoly244.4823
Mean Motion15.75421019
Decay Rate-0.01721783
L11 66862U 25281Q 25354.25003472 -.01721783 00000+0 -12495-1 0 9990
L22 66862 43.0009 76.3333 0000998 264.7299 244.4823 15.75421019 2505



Live tracking and technical data element details for STARLINK-35974 (NORAD 66862). STARLINK-35974 can be tracked NOW for your location showing map with azimuth and elevation plus other details from your city location.







IsCatalogInMostPopularTable: catalog: 66862, numindb: 17
Update: records affected: 1



GetName: 66862 STARLINK-35974

Hit Count: updated at: Wed, 15 Apr 2026 01:23:21 GMT